Вернуться в каталог

QIANFAN-151

АктивенСвязьPO
NORAD 69110·PAYLOAD·🇨🇳 China

Запущен May 17, 2026 с Wenchang Space Launch Site

Loading…

Ближайшие Пролёты (ближайшие 24 часа)

TLE

СвежийSource: Space-Track

Эпоха: Sep 14, 2026, 13:41 UTC

1 69110U 26108G   26257.57058272  .00000097  00000-0  13240-3 0  9991
2 69110  89.0189  13.1146 0001817 101.8154 258.3201 13.51026639 16506

Отслеживайте QIANFAN-151 в реальном времени с AllMySat

Download on the App Store